[Iaude] MPEC A19: 2024 AF [a=1.60,e=0.36,i=7.4,H=23.9]

mpec at marsden.cfa.harvard.edu mpec at marsden.cfa.harvard.edu
Tue Jan 2 21:57:59 EST 2024


M.P.E.C. 2024-A19                               Issued 2024 January 3, 02:56 UT

     The Minor Planet Electronic Circulars contain information on unusual
         minor planets, routine data on comets and natural satellites,
         and occasional editorial announcements.  They are published
    on behalf of Division F of the International Astronomical Union by the
          Minor Planet Center, Smithsonian Astrophysical Observatory,
                          Cambridge, MA 02138, U.S.A.
			  
             Prepared using the Tamkin Foundation Computer Network

                              MPC at CFA.HARVARD.EDU
            URL https://www.minorplanetcenter.net/    ISSN 1523-6714

                                    2024 AF                                     


Observations:
     K24A00F*1C2024 01 01.24944704 35 40.279+33 05 28.46         20.32GVEA019G96
     K24A00F 1C2024 01 01.25558004 35 39.995+33 05 11.18         20.31GVEA019G96
     K24A00F 1C2024 01 01.26171804 35 39.779+33 04 53.98         20.51GVEA019G96
     K24A00F 1C2024 01 01.26785404 35 39.548+33 04 36.88         21.17GVEA019G96
     K24A00F KC2024 01 01.33621104 35 36.870+33 01 22.30         22.23GVEA019I52
     K24A00F KC2024 01 01.33805204 35 36.810+33 01 16.10         20.78GVEA019I52
     K24A00F KC2024 01 01.33990404 35 36.680+33 01 11.00               VEA019I52
     K24A00F KC2024 01 01.34174304 35 36.630+33 01 05.40               VEA019I52
     K24A00F KC2024 01 01.40236704 35 34.793+32 58 09.16         20.53GVEA019I52
     K24A00F KC2024 01 01.40447504 35 34.692+32 58 02.60         20.96GVEA019I52
     K24A00F KC2024 01 01.40659104 35 34.681+32 57 56.92         20.80GVEA019I52
     K24A00F KC2024 01 01.40870504 35 34.573+32 57 50.36         20.55GVEA019I52
     K24A00F KB2024 01 02.18193 04 35 27.64 +32 21 35.3          20.4 GXEA019H36
     K24A00F KB2024 01 02.18906 04 35 27.39 +32 21 15.0          20.5 GXEA019H36
     K24A00F KB2024 01 02.19583 04 35 27.13 +32 20 55.2          20.9 GXEA019H36
     K24A00F KC2024 01 03.08864504 35 20.47 +31 37 10.1          20.8 GVEA019H21
     K24A00F KC2024 01 03.09759104 35 20.19 +31 36 44.0          21.2 GVEA019H21
     K24A00F KC2024 01 03.10569904 35 19.98 +31 36 20.1          21.2 GVEA019H21

Observer details:
G96 Mt. Lemmon Survey.  Observer K. W. Wierzchos.  Measurers E. C. Beshore, D.
    Fay, J. B. Fazekas, D. C. Fuls, A. R. Gibbs, A. D. Grauer, H. Groeller, J.
    K. Hogan, R. A. Kowalski, S. M. Larson, G. J. Leonard, D. Rankin, R. L.
    Seaman, F. C. Shelly, K. W. Wierzchos.  1.5-m reflector + 10K CCD.
H21 Astronomical Research Observatory, Westfield.  Observer R. Holmes.
    Measurers T. Linder, R. Holmes, L. Horn.  0.76-m f/3.0 astrograph + CCD.
H36 Sandlot Observatory, Scranton.  Observer G. Hug.  0.56-m f/4.8 reflector +
    CMO.
I52 Steward Observatory, Mt. Lemmon Station.  Observer G. J. Leonard.
    Measurers E. C. Beshore, D. Fay, J. B. Fazekas, D. C. Fuls, A. R. Gibbs,
    A. D. Grauer, H. Groeller, J. K. Hogan, R. A. Kowalski, S. M. Larson, G.
    J. Leonard, D. Rankin, R. L. Seaman, F. C. Shelly, K. W. Wierzchos.  1.0-m
    prime focus + CCD.

Orbital elements:
2024 AF                                                  Earth MOID = 0.0655 AU
Epoch 2023 Sept. 13.0 TT = JDT 2460200.5                MPC                     
M 285.32940              (2000.0)            P               Q                  
n   0.48908316     Peri.  213.35751     -0.77021164     -0.62568562             
a   1.5954416      Node   287.41456     +0.60984159     -0.66572195             
e   0.3557438      Incl.    7.44643     +0.18672782     -0.40661012             
P   2.02           H   23.91          G   0.15           U   9                  
Residuals in seconds of arc
240101 G96  0.1-  0.1+    240101 I52  0.9-  0.4-    240102 H36  0.2-  0.2-
240101 G96  0.4-  0.1-    240101 I52  0.8-  0.7-    240102 H36  0.1-  0.1+
240101 G96  0.1+  0.1-    240101 I52  0.4-  0.1-    240102 H36  0.4-  0.1-
240101 G96  0.3+  0.0     240101 I52  0.9-  0.5-    240103 H21  0.0   0.1-
240101 I52  0.2-  0.2+    240101 I52  0.4-  0.1+    240103 H21  0.2-  0.1+
240101 I52  0.1-  0.6-    240101 I52  1.1-  0.3-    240103 H21  0.3+  0.1+

Ephemeris:
2024 AF                  a,e,i = 1.60, 0.36, 7                   q = 1.0279
Date    TT    R. A. (2000) Decl.     Delta      r    Elong.  Phase     V
2023 12 04    04 57 42.3 +43 22 06   0.2613  1.2324   158.4    17.1    22.4
...
2023 12 19    04 44 28.2 +40 24 46   0.1905  1.1636   158.8    17.8    21.6
...
2023 12 27    04 38 05.0 +36 38 22   0.1609  1.1306   154.3    22.1    21.3
...
2024 01 02    04 35 30.0 +32 30 26   0.1419  1.1081   149.6    26.7    21.1
2024 01 03    04 35 19.7 +31 41 48   0.1391  1.1045   148.7    27.5    21.1
2024 01 04    04 35 14.3 +30 50 58   0.1362  1.1010   147.8    28.4    21.0
...
2024 01 10    04 36 40.4 +24 57 44   0.1210  1.0816   142.2    33.9    20.9
...
2024 01 18    04 44 46.4 +14 51 47   0.1051  1.0597   134.2    41.7    20.8
...
2024 02 02    05 21 45.2 -09 59 03   0.09056 1.0335   119.9    55.8    20.8

A. U. Tomatic                (C) Copyright 2024 MPC           M.P.E.C. 2024-A19





More information about the Iaude mailing list